Regional Weather Roundup
Issued by NWS

Home | Current Version | Previous Version | Text Only | Print | Product List | Glossary On
Versions: 1 2 3 4 5 6 7 8 9 10 11 12 13 14 15 16 17 18 19 20 21 22 23 24 25 26 27 28 29 30 31 32 33 34 35 36 37 38 39 40 41 42 43 44 45 46 47 48 49 50
000
ASUS43 KMKX 010221
RWRWI

WISCONSIN REGIONAL WEATHER ROUNDUP
NATIONAL WEATHER SERVICE MILWAUKEE/SULLIVAN WI
900 PM CDT TUE SEP 30 2014

NOTE: "FAIR" INDICATES FEW OR NO CLOUDS BELOW 12,000 FEET WITH NO
SIGNIFICANT WEATHER AND/OR OBSTRUCTIONS TO VISIBILITY.

WIZ001-002-006>008-014>016-023>028-010300-
NORTHWEST WISCONSIN

CITY           SKY/WX    TMP DP  RH WIND       PRES   REMARKS
SUPERIOR ARPT  MOCLDY    45  43  92 E7        29.98R
ASHLAND        CLEAR     40  40 100 CALM      30.00S
HAYWARD        PTCLDY    46  44  93 NE3       29.98R
SIREN          MOCLDY    52  44  74 SE7       29.93F
CUMBERLAND     MOCLDY    46  43  87 SE7       29.96S
RICE LAKE      MOCLDY    50  43  78 SE8       29.98S
CHETEK         MOCLDY    49  44  83 E9        29.97S
LADYSMITH      PTCLDY    49  44  81 SE3       30.01R
EAU CLAIRE     MOCLDY    48  42  80 E7        29.98S
MENOMONIE      MOCLDY    48  44  84 E6        29.97F
NEW RICHMOND   PTCLDY    50  43  76 SE8       29.94S
OSCEOLA        PTCLDY    51  45  77 SE6       29.96R
$$

WIZ003>005-009-010-017-018-010300-
NORTH CENTRAL WISCONSIN

CITY           SKY/WX    TMP DP  RH WIND       PRES   REMARKS
MANITOWISH WTR PTCLDY    49  46  89 E5        30.00S
ARBOR VITAE    CLEAR     46  43  88 SE3       30.00S
WOODRUFF       CLEAR     46  43  88 SE3       30.00S
RHINELANDER    CLEAR     46  42  86 SE7       30.03R
EAGLE RIVER    CLEAR     47  41  80 S3        30.02S
LAND O LAKES   CLEAR     43  40  89 CALM      30.03R
PHILLIPS       MOCLDY    47  43  85 S7        30.00R
TOMAHAWK       PTCLDY    45  41  86 CALM      30.03R
MEDFORD        MOCLDY    44  42  93 S6        30.03R
MERRILL        PTCLDY    45  42  91 S5        30.04R
$$

WIZ029-030-035-036-043>047-010300-
CENTRAL WISCONSIN

CITY           SKY/WX    TMP DP  RH WIND       PRES   REMARKS
WAUSAU         CLOUDY    45  42  89 SE8       30.03R
MOSINEE        CLOUDY    45  43  93 SE7       30.05R
MARSHFIELD     CLOUDY    48  42  80 SE10      30.03R
STEVENS POINT  CLOUDY    44  41  88 SE7       30.05R
WAUPACA        CLOUDY    49  45  85 E6        30.06S
WAUTOMA        NOT AVBL
WISC RAPIDS    CLOUDY    47  42  83 SE7       30.06R
CAMP DOUGLAS   CLOUDY    47  47 100 E7        30.04R
$$

WIZ011>013-019>022-031-037>040-048>050-010300-
NORTHEAST WISCONSIN

CITY           SKY/WX    TMP DP  RH WIND       PRES   REMARKS
ANTIGO         PTCLDY    41  40  97 SE6       30.04F
SHAWANO        CLOUDY    49  44  83 SE7       30.07S
OCONTO         CLOUDY    49  46  87 E3        30.06S
STURGEON BAY   NOT AVBL
GREEN BAY      CLOUDY    48  44  86 E5        30.07R
MANITOWOC      NOT AVBL
APPLETON       CLOUDY    46  43  87 VRB6      30.06S
CLINTONVILLE   CLOUDY    46  43  87 SE6       30.06S
OSHKOSH        CLOUDY    49  45  86 E7        30.05S
$$

WIZ032>034-041-042-053>061-010300-
SOUTHWEST WISCONSIN

CITY           SKY/WX    TMP DP  RH WIND       PRES   REMARKS
LA CROSSE      PTCLDY    50  43  77 SE8       30.00R
SPARTA         CLOUDY    47  41  80 E6        30.03R
VIROQUA        CLOUDY    46  43  89 E10       30.00F
BOSCOBEL       PTCLDY    48  43  82 CALM      30.03R
PRAIRIE DU CHI MOCLDY    49  43  78 E8        29.99F
PLATTEVILLE    MOCLDY    47  43  88 E9        30.01S
$$

WIZ056-057-062-063-064-067-068-010300-
SOUTH CENTRAL WISCONSIN

CITY           SKY/WX    TMP DP  RH WIND       PRES   REMARKS
REEDSBURG      MOCLDY    45  42  88 CALM      30.04S
BARABOO/DELLS  MOCLDY    43  39  88 E5        30.04S
LONE ROCK      PTCLDY    50  42  74 E6        30.03R
MINERAL POINT  CLEAR     45  43  93 E6        30.01R
MADISON        PTCLDY    43  41  93 CALM      30.04R
MIDDLETON      PTCLDY    44  42  93 NE6       30.04S
WATERTOWN      CLOUDY    49  45  85 E7        30.05R
MONROE         CLEAR     45  43  93 E6        30.02R
JANESVILLE     CLOUDY    52  45  76 E7        30.03R
$$

WIZ051-052-058>065-066-070>072-010300-
SOUTHEAST WISCONSIN

CITY           SKY/WX    TMP DP  RH WIND       PRES   REMARKS
MILWAUKEE      DRIZZLE   51  49  92 N5        30.05R FOG
WAUKESHA       CLOUDY    46  45  93 NE6       30.06R
MILWAUKEE/TIMM CLOUDY    46  45  93 MISG      30.06R FOG
RACINE         CLOUDY    52  50  93 N6        30.05R
BURLINGTON     CLOUDY    48  47  97 CALM      30.04S
KENOSHA        CLOUDY    51  50  96 N5        30.04R FOG
FOND DU LAC    CLOUDY    48  43  82 E7        30.06R
SHEBOYGAN      NOT AVBL
WEST BEND      CLOUDY    46  43  87 N3        30.05S FOG
JUNEAU         CLOUDY    48  44  84 E6        30.07R
$$

LSZ147-162-010300-
LAKE SUPERIOR

STATION/POSITION TIME  TEMP    WIND        PRES    WAVE
                       AIR SEA DIR/SP/G            HT/PER
                 (UTC) (F)     (DEG/KT/KT) (MB)    (FT/S)
W MID LAKE BUOY  0150   48 50  100/ 16/ 17 1016.9R   3/ 5
DEVILS ISLAND    0200   49      80/ 17/ 19 1016.6R
SAXON HARBOR     0140   42     190/  2/  5 1015.9R
$$

LMZ867-665-643>646-010300-
LAKE MICHIGAN

STATION/POSITION TIME  TEMP    WIND        PRES    WAVE
                       AIR SEA DIR/SP/G            HT/PER
                 (UTC) (F)     (DEG/KT/KT) (MB)    (FT/S)
CHAMBERS ISLAND  0100   46     150/  3/  3 1017.9S
S GREEN BAY BUOY 0200   51                 1018.9R
N MID LAKE BUOY  0150   55 58   90/ 12/ 14 1018.0F   1
NORTHPORT PIER   0100   52      30/  3/  4 1017.9R
KEWAUNEE LAKESHO 0200   51      50/  3/  8 1017.0R
SHEBOYGAN LAKESH 0200   49 55   10/  8/  9 1018.6R
PORT WASHINGTON  0100   49     320/  5/  7 1017.9S
ATWATER BUOY     0200   51     340/ 12/ 14 1018.4R
MILWAUKEE LAKESH 0200   51     350/  6/  7   N/A
S MID LAKE BUOY  0150   56 61   50/  8/ 12 1017.1R   3/ 6
KENOSHA   LAKESH 0200   54      10/ 13/ 14 1016.9R
$$

TC  - TEMPERATURE IN CELSIUS
VSB - VISIBILITY IN STATUTE MILES
WCI - WIND CHILL INDEX
HX  - HEAT INDEX




USA.gov is the U.S. government's official web portal to all federal, state and local government web resources and services.